CW1172 Weather Reports


time (UTC)temp
F
wind
direction
speed
knots
gust
knots
rain 1hr
in
rain 24hr
in
rain mn
in
humidity
%
barometer
mb
20260510140047 53 275 0.0 0.0 0.00 0.00 0.00 68 1009.3
20260510134546 52 229 0.0 0.0 0.00 0.00 0.00 67 1009.3
20260510133046 52 360 0.0 0.0 0.00 0.00 0.00 71 1009.5
20260510131544 52 244 0.0 0.0 0.00 0.00 0.00 67 1009.6
20260510130046 52 240 0.0 0.0 0.00 0.00 0.00 69 1009.7
20260510124547 52 251 0.0 0.0 0.00 0.00 0.00 67 1009.7
20260510123044 52 211 0.0 0.0 0.00 0.00 0.00 67 1009.9
20260510121543 53 254 0.0 0.0 0.00 0.00 0.00 65 1010.1
20260510120018 53 266 0.0 0.0 0.00 0.00 0.00 67 1010.3
20260510114511 55 272 0.0 0.0 0.00 0.00 0.00 66 1010.4
20260510113004 56 360 0.0 0.0 0.00 0.00 0.00 65 1010.3
20260510111502 56 167 0.0 0.0 0.00 0.00 0.00 63 1010.4
20260510110046 55 280 0.0 0.0 0.00 0.00 0.00 61 1010.6
20260510104537 55 232 0.0 0.0 0.00 0.00 0.00 64 1010.7
20260510103038 55 257 0.0 0.0 0.00 0.00 0.00 67 1010.8
20260510101533 54 238 0.0 0.0 0.00 0.00 0.00 65 1010.9
20260510100040 54 271 0.0 0.0 0.00 0.00 0.00 64 1011.1
20260510094544 55 360 0.0 0.0 0.00 0.00 0.00 63 1011.1
20260510093035 55 225 0.0 0.0 0.00 0.00 0.00 61 1011.1
20260510091540 55 207 0.0 0.0 0.00 0.00 0.00 61 1011.2
20260510090002 55 263 0.0 0.0 0.00 0.00 0.00 63 1011.2
20260510084502 56 240 0.0 0.0 0.00 0.00 0.00 64 1011.3
20260510083106 56 271 0.0 0.0 0.00 0.00 0.00 65 1011.4
20260510081558 56 360 0.0 0.0 0.00 0.00 0.00 65 1011.4
20260510080028 55 222 0.0 0.0 0.00 0.00 0.00 67 1011.8
20260510074526 55 213 0.0 0.0 0.00 0.00 0.00 67 1011.9
20260510073023 55 211 0.0 0.0 0.00 0.00 0.00 66 1012.2
20260510071532 55 254 0.0 0.0 0.00 0.00 0.00 71 1012.2
20260510070024 54 199 0.0 0.0 0.00 0.00 0.00 73 1012.5
20260510064521 54 219 0.0 0.0 0.00 0.00 0.00 73 1012.6
20260510063019 55 167 0.0 0.0 0.00 0.00 0.00 73 1012.8
20260510061517 54 169 0.0 0.0 0.00 0.00 0.00 76 1012.9
20260510054552 49 169 0.0 0.0 0.00 0.00 0.00 82 1013.3
20260510053049 48 180 0.0 0.0 0.00 0.00 0.00 84 1013.4
20260510051556 46 141 0.0 0.0 0.00 0.00 0.00 85 1013.6
20260510050002 45 116 0.0 0.0 0.00 0.00 0.00 86 1013.7
20260510044617 44 141 0.0 0.0 0.00 0.00 0.00 86 1013.8
20260510043056 43 137 0.0 0.0 0.00 0.00 0.00 86 1013.9
20260510041553 43 130 0.0 0.0 0.00 0.00 0.00 88 1014.1
20260510034549 39 148 0.0 0.0 0.00 0.00 0.00 88 1014.4
20260510033050 38 140 0.0 0.0 0.00 0.00 0.00 87 1014.5
20260510031546 39 159 0.0 0.0 0.00 0.00 0.00 87 1014.7
20260510030053 38 160 0.0 0.0 0.00 0.00 0.00 87 1014.9
20260510024544 38 157 0.0 0.0 0.00 0.00 0.00 87 1015.0
20260510021539 38 162 0.0 0.0 0.00 0.00 0.00 86 1015.5
20260510020039 38 161 0.0 0.0 0.00 0.00 0.00 86 1015.7
20260510014538 37 152 0.0 0.0 0.00 0.00 0.00 86 1015.8
20260510011542 37 155 0.0 0.0 0.00 0.00 0.00 83 1016.1
20260510010033 37 153 0.0 0.0 0.00 0.00 0.00 82 1016.4
20260510004531 37 153 0.0 0.0 0.00 0.00 0.00 81 1016.5
20260510001529 38 155 0.0 0.0 0.00 0.00 0.00 79 1017.0
20260510000028 37 148 0.0 0.0 0.00 0.00 0.00 78 1017.0
20260509234537 37 129 0.0 0.0 0.00 0.00 0.00 77 1017.1
20260509231526 38 123 0.0 0.0 0.00 0.00 0.00 73 1017.4
20260509230022 39 125 0.0 0.0 0.00 0.00 0.00 72 1017.6
20260509224520 39 125 0.0 0.0 0.00 0.00 0.00 72 1017.7
20260509221516 40 128 0.0 0.0 0.00 0.00 0.00 71 1017.7
20260509220023 40 128 0.0 0.0 0.00 0.00 0.00 70 1017.8
20260509214512 41 126 0.0 0.0 0.00 0.00 0.00 70 1018.0
20260509211513 42 116 0.0 0.0 0.00 0.00 0.00 69 1018.2
20260509210011 43 360 0.0 0.0 0.00 0.00 0.00 67 1018.5
20260509204510 44 301 0.0 0.0 0.00 0.00 0.00 66 1018.6
20260509201513 45 360 0.0 0.0 0.00 0.00 0.00 63 1018.7
20260509200011 47 300 0.0 0.0 0.00 0.00 0.00 61 1018.6
20260509194513 49 300 0.0 0.0 0.00 0.00 0.00 57 1018.7
20260509191513 52 360 0.0 0.0 0.00 0.00 0.00 50 1018.8
20260509190014 53 360 0.0 0.0 0.00 0.00 0.00 46 1018.8
20260509184507 53 301 0.0 0.0 0.00 0.00 0.00 44 1018.9
20260509181506 56 300 0.0 0.0 0.00 0.00 0.00 44 1018.9
20260509180008 57 281 0.0 0.0 0.00 0.00 0.00 42 1018.9
20260509174505 57 309 0.0 0.0 0.00 0.00 0.00 42 1018.9
20260509171505 61 259 0.0 0.0 0.00 0.00 0.00 38 1019.2
20260509170009 61 360 0.0 0.0 0.00 0.00 0.00 35 1019.1
20260509164503 62 360 0.0 0.0 0.00 0.00 0.00 36 1019.2
20260509161502 62 286 0.0 0.0 0.00 0.00 0.00 34 1019.5
20260509160001 63 360 0.0 0.0 0.00 0.00 0.00 34 1019.5
20260509154614 63 312 0.0 0.0 0.00 0.00 0.00 34 1019.7
20260509151558 61 253 0.0 0.0 0.00 0.00 0.00 39 1020.1
20260509150057 61 304 0.0 0.0 0.00 0.00 0.00 36 1020.2
20260509144600 62 360 0.0 0.0 0.00 0.00 0.00 38 1020.3
20260509141554 62 281 0.0 0.0 0.00 0.00 0.00 39 1020.5